Weather in Kuytezha

Russia / Republic of Karelia     60°59′38″N   33°12′51″E
temp.,
°C
wind,
m/s
gust,
m/s
humid.,
%
clouds,
%
prec.,
mm/h
press.,
hPa
HPBL,
m
8 march, mon
mon800:00−9nne51385100 0.0 997773
03:00−11nne5148699 0.0 1001634
06:00−14nne5128995 0.0 1004497
09:00−15nne4108971 0.0 1007418
12:00−13nne37896 0.0 1010442
15:00−11n468832 0.0 1012521
18:00−15n379160 0.0 1014219
21:00−20nne239632 0.0 101677
9 march, tue
tue900:00−24nne22960 0.0 101723
03:00−26nne22950 0.0 101920
06:00−28ne22940 0.0 102020
09:00−26ne249329 0.0 1022152
12:00−20ene248816 0.0 1023381
15:00−17ene248722 0.0 1024436
18:00−19ene22920 0.0 102524
21:00−24ene23890 0.0 102724
10 march, wed
wed1000:00−25e22860 0.0 102819
03:00−27ne00840 0.0 102919
06:00−26nw11820 0.0 102919
09:00−22wnw12851 0.0 102963
12:00−15wnw237745 0.0 1030301
15:00−11wnw248243 0.0 1029398
18:00−13w22935 0.0 102921
21:00−18nnw119513 0.0 102920
11 march, thu
thu1100:00−20sse01930 0.0 102920
03:00−21sse11950 0.0 102920
06:00−21sse12960 0.0 102820
09:00−18se24960 0.0 1027124
12:00−12sse25912 0.0 1025297
15:00−8sse48801 0.0 1023741
18:00−9sse3108747 0.0 1020707
21:00−10sse4128774 0.0 1019527
12 march, fri
fri1200:00−12sse3109092 0.0 1018331
03:00−15sse3109447 0.0 1016262
06:00−15se499463 0.0 1014260
09:00−13se5109152 0.0 1012309
12:00−7se511850 0.0 1009520
15:00−5se612810 0.0 1007674
18:00−6se5119033 0.0 1005880
21:00−9se5138766 0.1 1004678